Wind_Speed
5 5 4 3 3 2 2 2 3 3 2 2 2 2 2 2 1 1 1 0 1 1 2 3 3 4 5 5 4 3 4 4 4 5 5 6 5 3 4 5 4 4 4 4 5 5 4 4 5 5 5 4 5 4 4 4 4 4 3 3 3 3 2 1 1 1 1 2 3 3 4 4 4 5 5 6 6 7 7 8 9 9 10 10 11
6 5 4 3 3 2 2 2 2 2 2 2 2 2 2 2 1 1 1 0 1 1 1 2 2 4 4 4 4 3 3 4 4 4 4 5 6 4 3 4 4 4 4 4 4 4 4 4 3 4 4 4 3 3 3 3 3 3 3 2 2 1 1 1 1 1 2 2 3 3 4 4 4 5 5 5 6 7 7 8 9 10 11 11 10
6 5 4 4 3 2 2 2 2 2 2 2 2 2 2 1 1 1 1 0 1 1 2 2 2 2 4 4 4 4 3 4 3 4 4 5 6 5 3 3 4 4 4 4 3 4 4 3 3 3 2 2 2 2 2 2 2 2 1 1 1 0 1 1 2 2 3 3 4 4 4 4 5 5 6 6 6 7 7 8 9 10 11 11 10
6 5 4 3 3 2 2 2 2 2 2 2 2 2 2 1 1 1 1 1 2 2 2 2 2 2 3 4 5 4 4 3 3 4 4 5 5 5 4 2 3 3 4 4 3 3 3 3 3 3 3 2 1 1 1 0 1 1 1 1 1 2 2 2 2 3 3 4 4 5 6 6 6 7 7 7 7 8 8 9 10 10 10 10 10
4 4 4 3 3 2 2 2 2 2 2 2 2 2 2 1 1 1 1 1 1 2 3 2 2 3 4 5 5 4 4 4 4 4 4 5 5 5 5 4 4 3 3 3 3 3 2 3 3 3 3 3 3 2 3 3 3 3 3 3 3 3 3 4 4 4 5 5 5 6 7 7 7 8 8 8 9 9 9 9 9 9 10 10 10
3 3 3 3 3 2 2 2 2 2 2 2 2 2 2 2 1 1 0 1 1 2 2 2 3 3 4 5 5 4 4 4 3 4 4 4 5 5 4 4 4 4 4 3 4 4 3 3 3 3 4 4 4 4 5 5 5 5 5 5 5 5 5 5 6 6 7 7 7 7 8 8 8 8 9 9 9 9 9 9 9 9 9 9 9
2 1 2 2 2 2 2 2 2 2 2 2 1 2 2 2 2 2 1 1 2 3 2 2 3 4 4 4 5 5 4 4 3 3 4 4 5 5 4 4 4 4 4 3 4 5 4 4 4 4 4 4 4 5 6 6 6 6 6 6 7 7 7 7 8 8 8 8 9 8 8 9 9 9 9 9 9 8 8 9 8 8 8 8 8
2 2 1 2 2 2 2 2 2 2 2 2 1 2 2 2 2 2 2 2 2 3 3 3 3 3 3 4 5 4 4 4 3 3 4 4 4 4 4 4 3 4 4 4 5 5 4 4 4 5 5 4 5 6 6 5 5 5 5 6 6 7 7 8 8 9 10 9 9 9 9 9 9 9 9 9 8 8 8 8 7 7 7 6 6
3 2 2 2 2 2 2 3 3 2 2 2 1 2 2 3 3 2 2 1 1 2 2 3 3 2 3 5 5 4 4 3 3 3 3 3 4 4 4 4 4 4 4 4 4 4 4 4 5 5 6 6 6 6 6 6 5 5 5 5 6 6 7 8 8 9 10 10 9 10 10 9 9 9 8 8 7 7 7 6 6 6 5 5 5
4 3 2 2 2 2 2 3 3 3 3 2 1 2 1 2 3 2 1 2 2 2 2 3 3 3 3 4 4 4 3 3 2 2 3 3 3 3 3 3 3 3 3 3 3 3 3 3 4 5 6 6 6 7 7 6 6 5 5 6 6 6 7 8 8 8 9 9 9 9 8 8 8 8 7 6 6 6 6 5 6 5 4 4 4
5 4 3 2 3 3 3 3 3 3 2 2 2 2 1 2 2 2 2 1 2 3 3 3 3 4 4 4 4 3 3 2 2 2 3 3 3 3 3 3 3 3 3 3 2 2 3 3 3 4 5 6 7 7 7 7 6 6 6 6 6 6 7 7 7 7 8 8 8 8 7 7 7 7 6 5 5 5 5 5 5 4 3 2 2
6 5 4 3 3 3 4 4 3 3 3 2 2 2 2 2 2 2 2 2 2 3 3 3 3 4 4 3 3 2 2 1 2 3 3 3 3 3 3 3 3 2 2 2 2 2 2 2 3 3 3 5 6 7 8 8 7 7 6 6 6 7 7 7 7 7 8 7 7 7 7 7 7 6 6 5 5 5 5 5 4 2 1 2 2
7 6 6 5 4 4 4 4 4 3 3 2 1 2 2 2 2 2 1 1 1 2 2 2 2 2 2 3 2 1 2 2 2 3 4 3 3 3 2 2 2 2 2 1 1 1 1 2 2 2 2 4 4 5 6 7 8 8 7 7 7 8 8 8 8 8 7 7 6 6 6 6 6 6 5 5 6 6 5 4 2 2 3 2 2
7 7 7 7 5 5 5 5 4 4 3 2 2 2 2 2 2 1 1 1 1 1 2 2 1 2 2 2 2 2 2 2 3 4 4 4 3 3 2 2 2 2 1 1 1 1 2 1 1 1 2 3 3 3 4 5 6 7 7 8 8 9 9 9 9 8 7 6 6 6 6 6 6 5 6 6 6 5 4 3 3 4 3 2 2
8 8 8 8 7 6 5 5 5 4 3 3 3 3 2 2 2 2 1 2 2 2 2 2 1 2 2 1 2 2 2 3 4 4 4 4 3 3 3 2 2 1 1 1 2 2 1 1 1 1 2 2 3 3 3 4 6 7 7 8 8 8 9 8 8 8 6 6 6 6 6 5 5 5 6 6 5 4 3 4 4 4 3 3 2
9 9 9 8 8 7 6 6 6 5 4 4 3 3 3 3 3 3 3 2 2 3 3 3 2 0 1 1 1 1 1 2 3 3 4 4 3 3 3 2 2 2 2 2 2 2 2 2 2 2 2 2 3 3 3 4 6 7 7 7 7 7 7 6 7 7 6 5 6 6 6 5 6 6 6 6 5 4 5 5 5 5 4 4 4
10 10 9 9 8 8 7 6 6 6 5 5 4 4 3 4 4 3 4 3 1 1 3 3 2 1 1 1 0 0 1 1 1 1 3 3 4 4 3 3 4 3 3 4 3 3 3 3 3 3 3 3 3 3 3 4 5 5 5 6 6 5 6 6 6 6 5 5 6 7 7 6 6 7 7 6 5 5 6 6 6 6 5 5 5
11 10 10 9 9 8 8 7 6 6 6 5 4 4 4 4 4 4 4 4 2 2 2 3 3 3 3 2 2 2 1 2 2 1 2 3 3 4 3 4 4 3 4 5 5 5 4 4 3 4 3 3 3 3 3 3 4 4 5 7 7 6 5 5 6 6 6 6 6 7 7 7 7 7 7 6 6 7 8 8 7 7 7 6 6
12 11 11 10 9 9 8 8 7 7 7 6 6 5 4 4 4 4 3 3 3 3 3 3 3 4 4 3 2 3 3 3 2 2 1 2 2 3 3 4 4 4 5 5 6 6 5 4 4 4 4 3 3 3 3 4 4 4 5 7 7 5 5 5 5 6 6 7 7 8 8 7 7 7 7 7 8 8 9 9 9 9 8 8 7
14 12 12 11 10 9 9 9 8 7 7 7 7 6 5 4 5 5 4 4 4 4 4 3 3 4 4 4 4 3 3 4 3 3 3 2 2 2 2 2 3 4 4 4 5 5 4 5 5 5 4 4 4 4 4 4 4 5 5 5 5 5 4 4 4 5 6 7 8 8 8 8 7 7 8 9 9 10 10 10 10 10 10 9 8
15 14 13 13 12 11 10 10 9 8 8 7 7 7 6 6 6 6 6 5 5 5 5 4 4 3 3 3 4 4 4 4 4 4 3 2 2 2 0 1 2 2 2 4 4 4 5 5 6 6 6 5 5 5 5 5 5 5 6 6 5 5 4 4 5 5 6 7 7 8 8 8 8 8 9 10 10 10 11 11 11 11 11 11 10
15 15 14 14 13 12 11 11 10 9 8 8 7 8 8 8 8 7 7 7 6 6 6 5 5 4 3 3 4 4 4 4 4 4 3 2 3 4 3 2 2 1 1 3 3 4 5 5 6 7 7 6 6 6 6 7 6 6 7 8 7 6 6 5 6 5 6 6 7 8 9 9 10 10 11 11 11 12 12 12 12 13 12 12 11
14 15 16 15 14 13 12 11 11 10 10 9 8 8 9 9 9 8 8 8 7 6 6 6 6 5 5 5 5 5 4 4 4 3 3 4 4 4 5 5 5 3 3 3 4 6 7 7 8 8 8 8 8 8 8 8 8 9 9 9 8 7 7 7 7 7 7 7 8 9 10 11 11 12 12 13 13 13 13 13 14 14 13 13 13
15 15 15 16 15 14 14 13 12 11 11 10 9 9 8 9 9 9 9 9 8 7 7 7 7 7 7 6 6 6 5 5 5 4 4 4 4 5 6 5 5 5 4 4 5 7 7 8 9 9 8 9 9 9 9 9 10 11 11 10 10 9 9 9 8 9 9 9 9 10 11 12 13 14 14 15 15 15 15 15 15 15 15 15 14
16 16 15 15 15 15 15 14 13 12 12 11 10 9 9 8 9 9 9 9 9 9 8 8 7 7 7 6 7 6 6 5 5 5 4 4 5 6 6 6 6 6 5 5 6 6 7 8 8 8 8 8 9 9 10 10 11 12 12 11 12 11 11 11 11 11 11 11 11 12 12 13 14 15 16 16 17 17 17 17 17 17 17 17 16
18 16 15 15 15 15 15 15 14 13 13 12 12 11 10 9 9 10 10 9 10 10 9 8 8 8 8 7 7 7 6 6 6 6 6 5 6 5 5 6 7 7 6 5 6 7 7 6 7 7 7 8 9 9 10 10 11 13 14 12 14 15 14 14 14 14 14 13 14 14 14 15 16 17 18 18 19 19 19 18 18 18 18 18 18
17 17 16 15 15 15 15 15 15 15 14 14 12 12 11 10 10 10 10 10 10 11 10 9 9 9 9 8 7 7 6 6 6 6 7 6 6 6 5 5 5 6 6 5 6 7 6 6 6 7 7 7 8 8 10 10 11 14 15 14 15 17 17 17 17 17 17 17 17 17 17 17 18 18 19 20 20 21 21 20 20 20 20 20 21
16 16 16 16 16 15 15 15 15 15 15 15 13 12 12 12 10 10 10 10 11 11 11 10 10 10 10 9 8 8 7 7 7 7 7 6 6 6 5 5 5 5 5 5 5 5 6 6 6 6 6 6 6 7 8 8 9 13 15 15 16 19 20 20 20 20 20 20 20 20 20 20 21 21 21 22 22 22 22 22 22 22 22 23 23
16 16 16 16 16 16 15 15 16 16 15 15 14 13 13 13 12 11 11 11 11 12 12 11 11 10 10 10 9 9 8 7 8 7 7 7 7 7 7 7 7 5 5 4 5 6 5 6 6 6 6 7 6 7 7 8 9 11 12 15 16 18 21 22 22 21 22 23 23 24 24 24 24 24 24 24 24 24 24 24 24 24 24 25 25
17 16 16 16 16 16 16 15 15 16 16 15 15 14 14 13 13 12 12 11 11 11 11 11 12 11 11 10 10 9 8 8 8 8 8 8 8 8 8 8 8 7 7 6 6 8 7 7 6 5 5 7 8 9 10 10 12 13 13 15 17 18 20 22 22 22 22 23 25 26 27 27 27 27 27 27 26 26 26 27 27 27 27 27 27
18 17 16 16 16 16 16 16 16 16 16 16 15 15 15 14 14 13 13 12 11 11 11 12 12 12 12 12 11 10 9 9 9 9 9 9 9 9 8 8 9 9 9 8 7 8 8 7 7 7 7 8 10 11 11 12 14 17 17 17 18 19 20 22 23 23 23 24 25 27 28 29 30 30 30 30 30 30 29 29 29 29 29 29 29
18 18 18 17 16 16 16 16 16 17 16 16 16 16 16 15 15 14 13 13 13 12 12 12 12 12 13 13 12 11 10 10 10 10 10 10 10 10 9 9 10 10 11 10 10 11 12 11 12 13 11 12 12 13 14 15 16 19 21 21 20 20 20 22 23 24 24 24 25 26 27 29 30 31 32 32 33 33 33 33 32 32 31 31 31
18 18 19 18 18 17 17 17 17 17 17 17 16 16 16 16 16 15 14 14 14 14 13 12 12 12 13 13 13 13 12 12 11 11 11 11 11 11 11 11 11 11 11 12 13 14 14 13 14 15 14 14 15 15 17 17 16 16 18 20 22 22 21 21 21 22 25 25 25 26 26 27 28 29 31 32 33 34 35 35 35 35 34 33 33
19 19 19 19 19 18 18 17 17 17 17 17 16 16 16 17 16 16 15 15 16 15 14 13 13 13 13 14 14 13 13 13 13 13 12 12 12 12 12 12 12 12 12 13 14 14 15 14 14 15 15 14 16 16 17 18 17 16 16 18 20 20 21 21 21 21 24 27 28 28 28 28 29 29 30 31 32 34 35 36 37 37 37 36 35
19 20 19 19 19 19 19 18 18 17 17 17 17 16 17 17 17 16 15 16 16 15 15 15 14 14 14 14 14 13 12 13 13 13 13 13 12 12 12 12 13 13 13 14 14 14 16 15 14 15 15 14 16 17 16 18 18 18 17 18 18 19 20 22 23 22 23 26 28 30 30 31 31 31 31 32 33 33 34 36 37 38 38 38 38
20 20 20 20 19 20 20 19 18 18 18 18 17 17 17 17 17 16 16 16 16 16 16 15 15 15 15 15 14 13 12 13 13 13 13 13 13 13 13 13 14 14 13 14 15 15 16 16 15 15 15 16 17 18 17 18 18 18 18 18 19 20 21 21 22 23 23 25 28 30 32 32 32 32 32 33 34 35 35 36 36 38 39 39 39
21 20 20 21 21 21 21 20 20 19 19 19 18 18 18 17 17 16 16 16 16 16 16 16 15 15 16 16 15 13 13 13 13 13 13 14 13 13 13 13 13 13 13 13 14 15 16 17 16 15 15 15 16 17 17 17 18 18 18 18 18 20 22 22 21 22 23 24 26 29 31 31 30 30 30 32 34 34 35 36 37 37 38 39 40
23 21 21 21 22 22 21 20 20 20 19 19 19 19 18 17 17 17 16 16 17 16 16 16 16 16 17 17 16 15 14 14 14 14 14 14 14 14 14 13 13 12 13 13 14 15 17 18 18 17 16 15 15 16 15 16 18 18 18 18 18 19 20 21 21 20 20 20 22 25 27 28 28 29 30 31 31 31 33 34 35 36 37 38 40
24 23 22 22 22 22 22 21 20 20 19 19 19 19 19 18 18 17 17 17 17 17 17 17 17 17 17 17 17 16 16 16 15 15 14 14 14 14 14 13 13 13 13 14 14 15 17 18 17 17 16 15 15 16 15 15 18 19 19 20 20 19 18 18 20 20 20 21 21 23 25 26 27 29 30 31 31 30 30 29 30 31 33 35 38
24 24 23 22 21 21 21 21 21 20 20 20 20 20 20 20 19 19 18 18 18 17 17 17 17 17 17 17 18 17 17 17 17 16 15 13 13 13 13 13 13 13 14 13 14 15 16 16 16 16 16 16 16 16 16 16 17 17 18 19 21 21 21 20 19 19 21 23 24 23 22 23 24 25 26 28 29 29 28 27 27 27 27 30 33
23 23 23 22 21 21 21 21 21 20 20 20 20 21 21 20 20 20 19 19 19 18 17 17 17 17 18 18 18 18 17 18 19 19 18 16 15 15 13 12 13 14 14 14 14 14 15 15 16 16 16 16 16 16 17 17 17 17 18 19 20 20 21 23 22 20 20 22 25 26 23 21 22 23 23 23 25 28 29 29 29 28 26 26 29
23 22 23 22 21 21 21 21 21 21 21 21 22 24 23 22 20 19 19 19 18 18 17 17 17 17 18 18 18 19 20 21 23 24 24 24 23 22 19 17 15 15 15 15 15 16 16 17 17 17 17 17 17 17 18 18 18 19 19 19 20 20 21 22 24 22 19 19 22 26 25 22 23 27 25 24 24 26 29 30 29 28 26 25 27
23 22 22 22 22 21 20 20 21 21 21 21 24 27 27 26 22 19 18 18 18 17 17 17 17 17 18 18 18 18 20 22 24 25 26 26 25 24 23 22 21 20 20 19 18 17 17 18 18 18 18 18 18 18 19 20 20 20 19 20 22 23 21 21 22 21 19 17 19 24 27 24 23 28 29 27 26 28 29 28 26 25 26 27 29
23 22 22 22 22 21 20 20 21 21 21 22 25 27 28 29 27 22 18 17 17 17 17 18 18 17 18 18 18 17 18 19 20 20 20 21 22 22 22 22 23 23 24 24 23 21 20 19 19 19 18 19 19 18 19 19 20 21 22 22 23 23 22 21 23 23 23 22 20 24 30 28 23 26 30 28 26 28 29 28 27 27 29 30 32
23 22 22 22 22 22 21 20 21 21 21 22 26 28 28 29 29 27 22 18 17 17 17 17 18 18 18 17 17 17 17 18 18 18 18 19 20 21 22 22 22 22 22 24 25 26 26 24 23 22 20 19 19 19 19 20 22 24 24 23 23 23 22 22 25 30 31 28 25 25 30 32 26 25 29 28 26 27 28 27 27 28 31 32 33
23 23 23 23 22 22 22 22 21 21 21 22 25 28 29 28 28 28 26 23 19 18 18 18 18 18 18 18 18 18 17 17 17 17 17 17 16 17 18 19 20 20 19 18 19 21 24 26 27 27 24 22 22 22 21 21 23 24 24 25 25 25 26 27 30 34 32 28 26 25 27 31 27 25 28 29 27 27 28 27 27 28 29 31 32
23 23 23 23 23 22 23 23 22 22 22 23 25 27 28 28 27 27 28 25 22 20 20 20 19 19 19 19 19 19 18 17 18 17 16 15 14 15 15 16 17 17 17 17 17 17 18 19 22 23 23 21 21 21 21 20 23 24 24 25 26 27 31 33 33 32 28 25 24 23 24 28 28 26 29 30 29 28 28 27 28 28 28 29 31
22 22 22 23 23 23 24 24 23 23 23 24 27 28 28 28 26 26 28 26 22 22 21 21 21 20 20 20 20 21 20 19 20 20 20 18 17 16 16 17 18 18 18 19 19 19 19 19 19 20 21 20 20 20 20 20 23 24 25 26 25 26 29 30 29 29 26 23 21 22 24 27 27 27 29 29 29 29 29 28 28 29 29 30 31
22 22 22 23 23 24 25 25 24 24 24 25 27 29 30 29 27 27 27 24 22 22 22 21 21 21 21 22 22 21 21 21 21 21 21 21 19 17 17 18 18 19 19 18 19 20 21 21 21 20 20 20 20 20 20 21 22 23 26 27 24 23 24 22 22 27 27 23 20 21 23 26 26 26 29 30 29 28 28 29 28 28 29 31 31
23 23 22 22 23 24 24 25 25 25 24 24 27 29 30 30 30 29 26 22 21 22 21 21 21 21 22 24 25 24 23 22 22 21 21 21 19 17 18 18 18 18 18 17 18 19 18 17 15 16 17 17 18 19 20 22 21 21 25 27 24 22 22 20 20 25 27 24 20 17 20 25 25 25 28 29 28 27 27 26 25 24 25 28 30
24 23 22 22 22 22 23 24 26 26 25 24 26 29 30 31 31 30 26 21 21 21 20 20 21 21 22 24 26 29 28 26 26 25 24 23 20 17 17 18 18 18 17 16 16 16 15 14 13 15 16 16 18 20 20 20 19 19 21 23 22 21 22 22 22 21 20 19 18 16 19 25 25 24 26 24 21 21 23 21 20 20 21 23 25
Wind_Direction
131 130 130 128 120 123 119 107 97 90 85 72 66 52 48 55 49 50 67 140 141 122 114 115 107 88 72 62 68 78 89 94 93 98 105 117 129 127 119 125 126 125 126 130 129 122 115 104 99 101 103 102 99 101 106 104 104 109 112 117 118 115 110 83 57 31 21 7 356 353 349 350 346 345 345 344 345 344 346 347 348 348 348 349 350
123 120 123 124 126 133 123 112 97 90 82 69 59 41 50 52 49 51 46 242 204 153 139 125 105 86 73 62 68 79 90 97 96 102 107 116 129 133 125 132 136 132 140 151 152 147 144 135 126 115 109 110 106 100 103 101 100 107 112 115 113 110 90 12 353 340 337 331 333 335 331 331 327 328 330 334 336 335 339 341 343 343 343 346 347
116 113 116 117 123 129 121 117 107 97 84 77 70 47 57 65 71 81 83 243 242 193 160 142 119 90 78 64 64 74 87 100 104 105 110 116 126 134 134 137 147 156 161 166 172 164 158 159 158 150 134 117 111 101 96 98 99 107 115 120 139 234 303 315 320 316 312 312 320 320 314 311 311 315 320 323 325 328 332 334 337 340 340 343 347
115 111 113 113 114 121 117 117 111 108 97 85 85 72 74 82 100 148 184 234 237 188 171 163 147 108 85 70 64 74 88 99 106 104 109 115 123 137 145 153 166 177 178 178 199 191 172 172 175 177 175 163 160 165 151 163 209 214 220 229 253 270 285 294 295 294 292 295 302 303 300 301 306 310 314 316 318 322 325 328 333 335 337 340 346
114 113 120 120 116 116 112 115 113 110 106 104 104 98 86 82 103 173 213 232 217 175 171 166 147 112 81 68 67 81 93 95 102 108 114 119 125 138 145 158 174 188 193 194 216 220 191 180 190 195 195 199 208 214 222 233 238 240 243 246 254 263 270 279 281 283 285 287 290 292 294 299 304 309 312 314 315 318 320 326 330 331 335 339 343
121 121 129 130 126 124 123 117 119 117 113 119 117 104 94 88 87 95 163 192 150 152 157 156 138 105 78 66 77 89 96 94 98 113 119 120 128 138 143 154 164 174 191 209 228 232 226 211 207 205 205 213 220 227 234 243 250 254 259 262 265 266 269 277 281 283 284 285 286 286 291 297 301 306 310 311 314 317 319 324 330 333 338 340 345
151 152 144 145 142 131 133 128 132 128 112 121 119 102 96 88 80 77 84 90 109 126 134 139 127 104 82 74 88 96 95 88 91 114 124 125 131 141 149 156 161 165 176 199 226 234 236 233 230 225 221 224 231 238 245 254 257 258 260 264 271 273 277 281 281 282 282 284 285 285 290 294 297 301 304 307 311 315 318 324 331 336 339 343 352
198 210 169 159 161 137 137 141 149 143 121 140 139 107 95 87 76 57 64 64 86 112 127 137 128 110 97 92 98 103 95 87 95 114 123 129 134 141 153 161 170 177 178 188 209 225 234 231 235 239 236 238 243 248 256 262 261 259 261 267 273 277 280 279 276 279 283 286 284 285 290 291 293 297 297 302 307 310 315 323 330 337 343 350 0
218 232 199 174 174 156 149 149 161 161 147 180 173 113 101 98 90 54 47 31 34 99 132 143 131 113 101 101 101 99 92 86 95 112 123 133 142 148 157 164 178 189 189 188 194 215 244 248 239 240 244 245 246 252 260 268 270 266 267 273 279 283 285 284 283 284 287 288 284 283 288 287 289 293 295 298 302 307 313 320 329 339 346 350 357
221 232 216 197 189 177 165 156 170 174 167 191 170 124 110 97 95 81 47 17 28 78 125 132 115 105 106 109 107 97 90 93 100 122 141 150 154 158 163 169 183 190 194 196 191 202 236 259 256 244 246 251 250 256 263 270 273 271 274 280 284 288 288 288 288 287 284 283 282 282 284 285 287 292 296 298 299 304 311 320 327 331 334 342 0
212 222 217 205 197 191 185 177 183 184 180 185 165 143 133 103 95 99 92 56 49 70 106 113 100 104 115 117 110 99 96 108 132 146 156 157 158 169 174 173 188 200 201 208 207 199 208 237 256 242 247 264 261 256 261 267 270 269 276 282 285 286 285 286 287 285 283 281 281 282 282 282 285 290 293 296 298 299 304 313 315 312 319 356 38
206 212 212 209 203 194 194 195 193 193 194 185 167 153 146 135 109 102 108 95 78 87 110 111 96 101 113 118 114 114 121 137 161 164 167 163 159 175 180 166 180 202 209 218 223 220 216 222 243 238 244 273 276 266 261 262 265 267 272 277 278 279 279 281 285 285 286 286 283 280 282 281 282 285 289 292 292 291 297 305 301 284 172 114 90
207 210 210 212 209 201 202 202 200 201 200 195 174 140 143 146 122 110 124 121 106 116 119 102 103 121 131 137 144 154 149 168 187 181 179 171 164 173 178 164 162 173 188 209 227 228 237 234 251 257 242 266 281 278 271 266 265 267 268 269 267 269 273 275 277 280 285 287 283 281 282 279 278 280 281 280 280 284 290 287 244 176 150 138 111
208 211 212 212 209 209 209 206 206 206 204 210 205 170 165 158 152 156 156 168 189 169 139 148 177 151 149 168 171 172 171 191 201 193 189 185 180 182 188 191 165 148 157 176 224 230 231 229 243 276 270 271 274 272 275 268 264 267 268 269 266 265 270 272 270 270 278 282 279 278 274 272 275 273 271 271 276 281 268 229 186 169 160 157 149
207 211 213 212 209 211 213 210 208 207 208 214 210 205 200 186 189 190 192 196 194 196 194 219 260 115 140 198 186 175 176 194 205 205 205 201 205 204 198 214 198 174 198 205 218 218 214 221 227 261 279 279 269 263 264 256 264 273 276 274 272 270 272 274 268 260 269 281 277 272 267 269 276 274 271 271 273 264 221 193 182 177 177 180 177
207 210 213 214 212 214 215 213 210 208 213 218 215 215 210 208 208 192 203 216 180 180 197 214 260 73 172 223 201 187 169 174 184 202 218 210 221 230 210 228 228 208 241 245 236 226 217 226 230 240 248 252 259 263 259 256 269 280 283 276 269 269 277 283 271 254 258 274 275 272 269 272 279 277 273 270 258 227 201 192 190 191 195 195 193
208 211 214 215 216 218 218 215 215 212 214 220 222 221 216 216 213 201 211 229 215 189 190 197 223 240 267 280 270 92 62 48 90 186 243 231 224 231 220 240 241 222 246 257 250 245 237 234 236 243 245 245 251 257 258 260 267 276 281 281 278 278 283 287 273 255 251 262 268 271 268 268 272 274 269 259 232 205 201 201 199 203 206 205 209
209 211 213 215 217 218 217 215 215 214 215 223 226 224 223 218 214 214 217 224 236 238 203 193 198 213 241 268 295 303 350 5 13 15 296 282 250 236 221 237 241 228 240 247 239 237 240 241 242 248 248 245 250 253 258 258 257 252 246 260 276 284 283 279 271 259 246 246 256 262 264 262 261 263 257 237 214 205 205 206 206 210 212 213 220
208 210 211 213 214 217 217 214 213 213 214 220 226 227 225 219 218 224 223 219 223 238 232 197 188 215 232 244 266 284 309 323 324 337 328 320 302 271 230 225 237 234 234 239 234 227 230 240 247 251 250 253 255 254 256 255 259 263 252 253 265 273 270 266 266 260 247 242 243 247 253 253 247 243 236 220 211 210 209 210 212 214 216 219 227
208 210 210 211 212 214 215 213 212 210 210 216 223 226 224 221 223 226 227 224 219 228 239 222 214 215 215 242 260 266 282 291 299 311 318 330 314 276 221 207 257 258 248 250 247 234 227 237 249 256 255 254 253 256 259 254 256 264 270 273 266 257 258 257 258 258 250 245 243 242 243 244 240 233 228 222 217 215 216 218 219 219 221 225 230
208 211 211 211 211 212 214 215 213 209 210 215 219 221 222 222 224 227 228 227 222 225 233 237 245 231 193 232 256 260 266 273 272 271 283 314 314 295 229 197 245 258 263 264 257 249 243 237 243 253 257 256 253 255 253 253 254 248 258 278 277 259 258 259 257 260 257 253 249 245 241 240 238 233 229 226 224 223 224 226 225 225 228 232 235
209 211 212 212 210 211 213 215 214 211 212 215 217 217 218 221 225 228 228 227 224 222 228 233 244 251 231 223 236 250 260 269 268 264 270 287 288 297 299 286 284 264 257 276 277 268 262 253 252 254 254 254 252 252 249 248 249 242 254 276 285 275 270 267 263 263 262 262 258 250 243 239 237 234 232 231 230 230 232 233 232 232 235 239 241
211 211 212 211 211 212 213 215 214 213 214 215 216 216 215 218 221 225 228 229 227 225 229 233 235 242 241 230 230 239 244 255 266 272 282 285 291 302 307 319 325 313 291 284 278 272 264 256 256 256 255 254 252 251 249 245 245 250 262 275 280 280 279 277 273 270 267 265 263 256 248 243 238 236 235 235 236 237 239 239 238 239 242 245 246
213 212 211 210 209 211 213 214 214 214 215 215 215 216 216 216 217 220 225 228 229 228 229 233 234 235 237 233 232 238 243 252 261 259 264 286 303 300 301 310 304 295 295 280 266 266 260 253 254 253 251 251 250 249 248 246 247 257 266 270 271 273 275 277 276 273 272 268 265 259 253 249 245 242 240 239 241 242 243 242 241 243 245 248 249
212 213 212 209 208 209 211 212 213 214 216 217 218 218 218 217 216 219 223 226 228 230 231 234 234 236 240 238 235 239 239 242 256 265 265 271 278 281 295 305 296 293 298 285 280 277 264 254 250 249 249 249 250 247 247 247 246 254 260 260 263 264 262 265 269 269 269 268 267 263 258 254 251 249 248 246 246 245 245 245 245 246 247 250 251
212 213 213 211 208 209 210 211 213 216 219 221 221 219 219 220 220 221 225 227 228 230 233 236 236 237 241 241 239 242 242 240 243 253 262 263 265 278 298 301 294 294 290 278 276 274 266 251 239 241 243 246 249 244 244 248 246 251 254 250 255 261 259 258 260 262 263 264 264 264 261 258 256 254 253 251 251 250 248 247 247 248 249 251 252
212 210 210 210 210 211 212 212 214 217 222 223 221 220 220 221 223 225 227 228 229 231 233 236 238 238 239 240 242 244 243 245 244 244 254 262 269 283 294 294 293 295 293 286 271 265 262 252 241 240 239 242 249 246 245 247 245 251 255 249 250 257 260 259 258 258 260 260 261 262 262 261 259 257 256 255 254 253 252 250 249 249 250 251 252
208 205 205 208 211 213 215 215 214 216 220 222 219 218 218 220 222 224 228 229 229 231 233 235 237 237 237 237 241 245 242 242 246 246 249 255 262 269 271 275 284 294 296 294 285 273 260 250 243 230 230 241 244 243 249 250 247 253 259 259 256 257 261 262 260 258 259 260 260 260 260 260 259 259 258 257 257 256 255 253 251 250 250 251 251
204 201 202 206 211 214 216 217 215 215 218 220 219 217 216 219 221 221 226 229 229 231 233 235 237 238 238 236 236 242 243 241 244 245 243 243 247 253 254 259 266 278 291 296 294 291 280 268 254 218 225 246 240 241 256 260 263 267 264 262 260 259 262 266 265 262 260 260 261 261 261 260 259 259 259 258 258 257 257 256 254 252 251 251 252
203 202 202 205 209 212 215 217 216 215 216 217 217 216 217 218 220 221 225 227 229 232 233 235 237 238 238 237 235 239 241 241 243 244 241 238 239 245 248 251 251 256 272 285 289 289 286 277 264 234 235 250 245 250 262 265 275 286 279 269 266 263 264 270 271 269 265 262 261 261 261 261 261 260 260 259 258 258 257 257 256 255 254 253 253
202 201 201 204 207 209 214 216 216 216 216 216 215 215 217 218 219 221 223 223 227 231 233 234 236 237 239 238 237 238 239 241 244 245 242 238 239 243 245 249 250 250 259 269 276 279 280 278 277 273 263 257 254 258 262 263 273 286 287 280 275 272 270 270 271 270 268 266 264 263 262 261 261 261 260 260 259 258 257 257 257 256 256 256 255
201 201 201 204 206 208 213 216 216 216 216 217 216 215 216 218 219 221 221 220 223 228 232 234 236 237 238 239 238 238 239 240 242 245 244 239 239 242 242 244 247 247 251 256 262 269 273 275 279 279 274 268 264 262 264 266 271 281 288 287 283 280 275 271 270 270 270 268 266 265 265 264 263 261 261 260 259 259 258 257 257 256 256 256 256
202 201 202 204 206 207 212 214 215 216 215 215 216 215 217 218 219 220 220 220 223 228 231 234 236 238 239 240 239 238 238 240 242 244 245 241 238 239 239 238 240 241 242 246 255 267 272 271 271 274 274 272 269 263 262 268 270 271 278 284 286 284 277 272 268 269 273 275 273 269 267 266 265 264 262 261 260 259 258 258 257 256 256 256 255
203 202 204 205 206 207 210 213 213 213 213 214 215 216 217 218 219 220 220 219 222 226 229 232 234 237 239 241 241 239 237 238 241 244 246 245 241 239 238 236 238 240 237 237 247 263 272 272 270 272 272 269 268 265 261 265 270 267 264 269 274 276 274 273 269 264 268 276 280 280 276 271 268 266 264 262 261 260 259 258 257 256 255 255 254
205 205 206 206 205 207 209 211 211 212 212 213 215 216 217 218 218 219 220 219 221 224 227 230 232 235 238 241 243 242 239 237 239 242 246 246 244 243 242 239 241 243 240 237 242 256 269 273 271 271 273 270 268 269 265 264 268 268 264 263 265 265 267 270 271 269 268 272 278 283 283 280 276 272 269 267 264 262 261 259 258 257 256 255 254
207 206 207 206 205 205 208 209 209 210 210 212 215 216 217 217 218 219 221 221 222 224 227 230 232 234 237 241 243 244 241 240 241 242 244 243 241 241 242 242 243 244 243 241 242 250 265 274 273 271 274 274 271 271 270 268 267 265 263 263 265 265 265 265 266 268 270 273 277 281 282 281 279 277 275 272 269 266 264 262 260 259 257 256 255
208 206 205 206 206 206 207 209 209 209 210 211 213 215 216 218 219 220 222 223 225 227 229 231 232 234 237 240 244 244 241 241 242 243 244 242 241 241 242 243 243 244 246 246 247 252 261 271 277 278 277 275 274 274 274 274 274 271 267 263 262 266 270 271 268 266 269 273 277 281 282 283 283 281 278 276 274 272 269 267 265 263 261 258 255
207 207 205 205 207 207 208 209 210 211 211 212 213 214 216 217 219 221 223 225 228 229 230 232 233 234 237 240 243 243 241 240 241 243 245 243 243 243 243 245 246 247 251 253 255 258 262 267 274 278 279 278 279 281 282 283 284 283 281 276 270 265 266 268 270 271 271 269 269 273 279 282 283 283 284 282 280 278 276 274 271 268 266 263 259
207 207 207 206 207 207 208 210 212 212 212 213 213 213 214 216 218 221 223 225 229 230 232 233 234 236 238 241 243 242 239 239 239 242 245 246 247 247 246 247 248 251 255 255 256 259 264 267 269 273 277 280 282 285 288 289 287 285 285 287 287 283 275 271 273 278 280 277 274 272 275 278 278 280 284 286 284 283 282 280 278 274 269 266 263
207 208 208 207 207 208 209 211 213 213 213 214 213 212 214 215 217 220 223 226 229 230 232 234 236 238 240 242 244 243 241 239 239 240 242 244 248 251 251 250 250 253 257 258 258 260 263 267 270 273 278 280 281 284 288 289 287 285 283 286 291 295 294 289 286 287 287 285 284 282 281 282 281 279 279 281 280 281 283 283 281 278 274 270 267
206 208 209 208 207 208 209 211 213 214 214 214 214 213 212 213 216 220 222 225 228 230 233 235 237 239 242 244 246 245 243 242 242 244 246 247 251 254 254 253 254 257 259 260 261 263 265 268 271 274 277 278 279 282 286 288 288 287 285 283 284 289 294 295 295 292 286 283 286 287 284 284 286 283 278 274 274 276 278 279 278 275 273 272 269
204 207 208 209 209 209 209 211 212 212 213 215 215 216 214 213 214 218 222 224 226 228 230 234 237 239 241 245 247 247 247 247 248 251 256 259 262 263 261 258 257 258 261 262 263 265 267 270 273 276 277 278 281 286 289 290 290 290 289 287 286 290 294 295 294 293 289 285 286 286 284 285 289 290 285 278 278 276 270 270 273 272 271 273 271
203 205 206 208 211 212 211 212 212 212 214 215 217 220 221 220 216 216 221 224 225 226 228 232 235 239 241 244 246 248 249 250 253 257 262 265 266 268 267 265 261 258 258 261 264 266 268 270 272 275 278 280 283 287 288 289 290 293 295 295 294 294 295 295 294 294 294 293 289 286 285 285 286 288 287 284 284 282 271 266 267 267 268 275 276
201 204 206 208 211 213 214 215 214 215 216 216 219 224 227 227 224 220 221 225 226 226 228 230 233 236 240 242 244 245 245 247 250 255 262 267 269 270 273 273 269 264 260 259 260 262 265 270 273 274 276 280 283 285 287 290 293 294 294 294 291 290 291 291 290 290 292 295 293 288 287 287 284 283 286 286 287 286 280 273 268 262 264 273 279
201 204 207 208 210 213 215 217 218 219 219 219 222 227 230 232 231 227 226 228 230 230 229 231 232 234 236 238 241 243 244 245 246 247 252 260 267 272 276 278 277 274 270 265 261 259 259 263 268 270 273 276 279 283 286 290 292 293 293 292 289 288 288 288 288 290 292 294 292 287 285 286 286 284 283 285 288 287 282 278 273 265 261 266 276
203 205 207 209 211 212 215 217 220 222 222 222 225 229 232 233 233 231 229 229 232 234 233 233 234 234 234 236 239 242 243 242 242 243 245 248 256 264 271 275 277 277 278 275 270 264 260 259 261 264 266 269 275 281 285 287 286 287 289 290 291 291 289 287 289 290 290 289 287 282 279 281 284 283 282 284 288 288 284 282 280 273 264 263 271
204 206 208 209 211 212 213 216 220 223 225 224 226 230 233 234 234 233 232 230 231 234 235 235 236 236 236 237 240 244 245 243 241 241 242 244 249 255 261 266 269 269 269 270 270 268 265 263 262 262 263 265 271 277 280 282 282 282 286 290 293 293 291 291 291 289 288 287 282 275 275 281 286 286 284 286 290 289 286 285 283 278 269 265 268
206 206 208 210 211 212 213 215 219 224 226 226 227 229 232 234 233 232 231 229 229 233 235 235 236 236 237 237 240 244 245 245 244 244 245 248 252 257 261 264 266 266 265 267 266 263 262 265 265 264 267 270 274 280 283 283 282 284 287 291 292 291 290 292 293 291 291 293 291 286 285 288 292 291 289 290 291 289 286 285 283 279 273 268 268
206 206 207 210 212 212 214 214 216 222 226 226 227 229 231 232 231 229 227 226 228 231 234 235 235 236 236 236 237 243 246 247 247 249 252 254 254 256 261 265 267 268 268 269 271 268 268 270 270 271 275 277 280 286 290 289 288 289 286 285 286 287 287 289 292 293 295 297 299 297 291 290 293 294 293 294 293 288 284 283 281 278 273 269 266
207 208 208 210 212 213 214 214 215 220 225 227 227 229 231 231 230 228 224 223 226 230 232 235 235 235 237 237 237 240 243 247 249 250 252 255 253 254 261 265 265 266 269 272 275 276 277 278 279 281 284 283 285 290 291 291 294 290 280 277 282 285 286 286 290 293 295 297 302 306 297 294 296 296 296 297 295 289 286 285 283 280 276 271 267
208 209 209 211 213 214 215 216 216 219 225 228 228 230 231 232 231 227 222 221 225 228 231 233 234 235 237 239 241 243 245 249 253 255 255 255 253 253 258 263 265 266 271 273 274 280 287 290 292 291 289 290 292 293 292 292 293 287 278 278 281 282 283 287 292 295 296 297 306 313 303 297 298 299 299 301 297 293 292 290 286 284 280 275 271
Height
869 870 871 871 872 872 873 873 873 873 874 874 874 874 874 874 875 875 875 875 875 875 875 875 875 875 875 875 876 876 876 877 877 877 878 878 879 879 879 880 881 881 882 882 883 883 883 883 884 884 884 884 884 885 885 885 885 885 885 886 886 886 886 886 886 885 885 885 885 885 884 884 884 883 882 882 881 881 881 880 880 879 878 877 877
870 870 871 872 872 873 873 873 874 874 874 874 874 874 874 874 875 875 875 875 875 875 875 875 875 875 875 875 876 876 876 877 877 878 878 879 879 879 879 880 881 881 881 882 882 883 883 883 884 884 884 884 885 885 885 885 885 885 886 886 886 886 886 886 885 885 885 885 885 884 884 884 883 883 882 881 881 881 880 880 879 879 878 877 876
870 871 871 872 873 873 874 874 874 874 874 874 874 874 874 875 875 875 875 875 875 875 876 876 875 875 875 875 876 876 877 877 877 878 878 879 879 879 880 880 880 881 881 882 882 883 883 883 884 884 884 885 885 885 885 885 885 885 885 885 885 885 885 885 885 885 885 885 884 884 884 883 883 882 882 881 881 881 880 880 879 879 878 877 876
870 871 872 872 873 873 874 874 874 874 874 874 875 875 875 875 875 875 875 875 875 875 876 876 876 875 875 875 876 876 877 877 877 878 878 878 879 880 880 880 880 881 881 881 882 882 883 883 883 884 884 885 885 885 885 885 885 885 885 885 885 885 885 885 885 885 884 884 884 884 883 883 883 882 882 881 881 880 880 879 879 878 877 877 876
870 871 872 873 873 874 874 874 874 874 875 875 875 875 875 875 875 875 875 875 875 875 875 875 876 875 875 875 876 876 877 877 878 878 878 878 879 880 880 881 881 881 881 881 882 882 882 883 883 883 884 884 884 884 885 885 885 885 885 885 885 885 885 885 884 884 884 884 884 883 883 883 882 882 881 881 881 880 880 879 879 878 877 876 875
871 872 872 873 873 874 874 874 875 875 875 875 875 875 875 875 875 875 875 875 875 875 875 875 875 875 875 876 876 877 877 877 878 878 878 878 879 879 880 881 881 881 881 881 881 881 882 882 882 883 883 883 883 884 884 884 884 884 884 884 884 884 884 884 884 884 884 883 883 883 883 882 882 882 881 881 880 880 879 879 878 877 877 876 875
871 872 872 873 873 874 874 874 875 875 875 875 875 875 875 875 875 875 875 875 875 875 875 875 875 876 876 876 876 877 877 877 878 878 878 878 879 879 879 880 880 881 881 881 881 880 881 881 882 882 882 883 883 883 883 883 883 883 884 884 884 884 884 884 883 883 883 883 883 882 882 882 881 881 881 880 880 879 879 878 878 877 876 876 875
871 871 872 873 873 873 874 874 875 875 875 875 875 875 875 875 875 875 875 875 875 875 875 876 876 876 876 876 877 877 877 877 878 878 878 878 878 879 879 879 879 880 880 880 880 880 880 880 881 881 881 882 882 882 882 882 883 883 883 883 883 883 883 883 883 882 882 882 882 882 881 881 881 880 880 880 879 879 878 878 877 877 876 875 875
870 871 872 873 873 873 873 874 875 875 875 875 875 875 875 875 876 876 875 875 875 875 875 875 876 876 876 876 877 877 877 878 878 878 878 878 878 878 879 879 879 879 879 879 880 880 880 880 880 880 881 881 881 881 881 881 882 882 882 883 883 882 882 882 882 882 882 881 881 881 881 880 880 880 879 879 879 878 878 877 877 876 876 875 875
870 871 871 872 873 873 873 874 874 875 875 875 875 876 875 875 876 876 876 876 875 875 875 875 876 876 876 877 877 877 878 878 878 878 878 878 878 878 878 878 879 879 879 879 879 880 879 879 879 879 880 880 880 880 880 881 881 881 882 882 882 882 882 881 881 881 881 880 880 880 880 880 880 879 879 879 878 878 877 877 876 876 875 875 874
870 870 871 872 872 873 873 873 874 875 875 875 875 876 876 876 876 876 876 876 876 875 875 876 876 876 876 877 877 878 878 878 878 878 878 878 878 878 878 878 878 878 879 879 879 879 879 879 879 879 879 879 879 880 880 880 880 881 881 881 881 881 881 881 880 880 880 879 879 879 879 879 879 879 879 878 878 877 877 876 876 875 875 875 874
869 870 871 871 872 872 873 873 874 874 875 875 875 875 876 876 876 876 877 876 876 876 876 876 876 876 877 877 878 878 878 878 878 878 878 877 878 878 877 878 878 879 879 879 879 879 879 879 879 879 879 879 879 879 879 879 880 880 880 880 880 880 880 880 879 879 879 879 879 879 879 879 879 878 878 878 877 877 876 876 875 875 875 874 874
869 870 870 871 871 872 872 873 873 874 874 874 875 875 876 876 876 876 876 876 876 876 876 876 876 876 877 877 877 878 878 878 878 877 877 877 877 878 878 878 878 878 879 879 879 879 879 879 879 879 879 879 879 878 878 878 879 879 879 879 879 879 879 879 879 879 879 878 878 878 878 878 878 878 877 877 876 876 875 875 875 874 874 874 874
868 869 870 870 871 871 872 872 873 873 874 874 875 875 875 876 876 876 876 876 876 876 876 876 876 876 876 876 876 877 877 877 877 877 876 877 877 877 878 878 878 878 878 879 879 879 879 879 879 879 879 879 879 878 878 878 878 878 878 878 878 878 878 878 878 878 878 878 878 878 877 877 877 877 876 876 876 875 875 875 874 874 874 874 874
868 868 869 870 870 871 871 872 872 873 873 874 874 875 875 875 875 876 876 876 876 876 876 876 875 875 876 877 876 876 878 877 876 876 876 876 876 877 877 877 878 878 878 879 879 879 879 879 879 879 878 878 878 878 878 878 877 877 877 877 877 877 877 877 877 877 878 877 877 877 876 876 876 876 876 875 875 875 875 874 874 874 874 874 874
867 868 868 869 870 870 871 872 872 872 873 873 874 874 874 875 875 875 875 875 874 875 876 875 875 875 876 876 874 876 879 877 874 875 875 875 876 876 876 877 877 878 878 878 878 878 878 878 878 878 878 877 877 877 878 878 877 876 876 876 876 877 876 876 876 876 877 877 876 876 876 876 875 875 875 875 875 874 874 874 874 874 874 873 873
866 867 867 868 869 870 870 871 871 872 872 873 874 874 874 874 874 874 875 874 874 874 875 875 876 876 876 876 876 878 878 874 873 875 874 874 875 875 875 876 876 877 878 878 878 878 878 878 878 877 877 877 877 877 877 877 877 876 876 876 876 876 875 875 875 875 876 876 876 875 875 875 875 874 874 874 874 874 874 873 873 873 873 873 873
865 866 866 867 868 869 870 870 871 871 872 872 873 873 873 874 874 874 874 874 874 874 875 875 875 876 876 876 877 878 876 874 876 877 875 873 873 874 875 875 875 876 877 877 877 877 877 877 877 877 877 877 877 876 877 877 876 876 876 875 875 875 875 875 874 874 875 875 875 874 874 873 873 873 873 873 873 873 873 872 872 872 872 872 872
863 864 865 866 867 868 868 869 870 870 871 872 872 872 873 873 873 874 874 874 874 874 874 874 875 875 875 875 875 875 875 875 876 877 878 876 874 873 873 874 874 874 875 875 875 875 876 876 876 876 876 876 876 876 876 876 876 875 875 874 874 874 874 874 873 873 873 873 873 873 872 872 872 872 872 872 872 872 872 871 871 871 871 870 870
862 863 864 865 866 867 867 868 869 870 870 871 871 872 872 872 873 873 873 874 874 874 874 874 874 874 874 875 875 875 875 875 875 876 877 878 876 872 872 872 873 873 873 873 873 873 874 875 875 875 875 875 875 875 875 875 875 874 874 873 873 873 873 872 872 872 872 872 871 871 871 871 871 871 871 871 871 871 870 870 870 869 869 869 868
860 861 862 864 864 865 866 867 868 869 869 870 870 871 871 872 872 872 873 873 874 874 874 874 873 873 874 875 875 875 875 875 875 875 875 877 877 872 870 871 871 871 872 872 872 872 873 874 874 874 874 874 874 874 874 874 874 873 873 872 872 872 871 871 871 871 871 870 870 870 870 870 870 870 870 870 870 869 869 869 868 868 868 868 868
859 860 861 862 863 864 865 866 867 867 868 869 869 870 870 871 872 872 872 873 873 873 873 874 873 873 873 874 875 875 875 874 874 873 873 875 875 871 869 868 868 869 871 871 872 872 872 872 873 873 873 873 873 873 873 873 872 872 872 871 870 870 870 870 870 870 870 870 870 869 869 869 869 869 869 868 868 868 868 868 867 867 867 867 867
857 858 859 860 862 863 864 865 866 867 867 868 868 869 869 870 871 871 872 872 872 872 873 873 873 873 873 873 874 874 874 874 873 873 873 873 872 871 869 868 868 869 870 871 871 871 871 871 871 871 871 871 871 871 871 871 871 870 870 870 869 869 869 869 869 869 869 869 869 868 868 868 867 867 867 867 867 867 866 866 866 866 866 866 866
855 856 857 859 860 861 863 864 864 865 866 867 867 868 868 869 869 870 870 871 871 871 872 872 872 872 872 872 873 873 873 873 872 872 872 872 872 872 869 869 869 869 869 870 870 870 870 870 869 869 869 870 870 870 870 870 869 869 868 868 868 868 868 868 868 868 867 867 867 867 867 866 866 866 865 865 865 865 865 864 864 865 865 865 865
852 854 855 857 858 859 861 862 863 864 865 865 866 867 868 868 868 869 869 869 870 870 870 871 871 871 871 871 872 872 872 872 872 872 871 872 872 871 870 869 869 868 868 869 869 869 868 868 868 868 868 868 868 868 868 868 868 867 867 867 867 867 867 866 866 866 866 865 865 865 865 864 864 864 863 863 863 863 863 863 863 863 863 863 863
850 852 853 855 856 857 858 860 861 862 863 864 865 866 867 867 867 867 868 868 868 869 869 869 870 870 870 871 871 871 871 871 871 871 871 871 870 870 869 869 869 867 867 868 868 867 866 866 866 866 867 867 867 866 866 866 866 865 865 865 865 864 864 864 864 864 864 863 863 863 862 862 862 861 861 861 861 861 861 861 861 861 862 862 861
847 849 851 853 854 855 857 858 859 860 861 862 863 864 865 866 866 866 866 867 867 867 868 868 869 869 869 869 870 870 870 870 870 870 870 870 869 869 869 870 870 868 866 865 866 865 864 864 864 864 865 865 865 865 864 864 864 863 863 864 863 862 862 862 862 862 861 861 861 860 860 860 859 859 859 859 858 859 859 859 859 860 860 860 859
844 847 849 850 852 853 855 856 857 858 859 860 862 863 863 864 865 865 865 866 866 866 867 867 867 868 868 868 868 868 869 869 869 869 869 869 869 870 870 870 871 870 868 865 864 863 862 862 862 863 864 864 864 863 863 862 863 862 861 861 861 860 859 859 859 859 859 858 858 858 857 857 857 856 856 856 856 856 857 857 857 857 857 857 856
842 844 846 848 850 851 853 854 855 856 858 859 860 861 862 862 863 864 864 864 865 865 865 865 866 866 866 867 867 867 867 867 867 867 868 868 868 869 869 869 870 870 870 868 865 862 861 861 860 861 862 862 862 862 861 861 861 861 860 859 859 858 857 856 856 856 856 856 855 855 854 854 854 854 854 854 854 854 854 854 854 854 854 854 854
839 841 843 845 847 849 850 852 853 854 855 857 858 859 860 860 861 862 862 863 863 863 864 864 864 865 865 865 866 866 866 866 866 866 866 867 867 867 868 868 868 868 868 868 865 862 861 860 859 859 860 860 861 860 860 859 858 858 858 857 856 855 855 854 853 853 853 853 852 851 851 851 850 850 850 851 851 851 851 850 850 850 850 850 850
836 838 840 842 844 846 848 849 851 852 853 854 855 856 857 858 859 860 860 861 861 862 862 862 863 863 863 864 864 864 865 865 865 865 865 865 865 866 866 866 867 867 866 867 865 861 860 860 859 859 859 859 859 858 858 857 856 855 855 854 853 852 852 851 850 850 850 849 848 848 847 847 847 847 847 847 847 847 847 846 847 846 847 847 846
833 835 837 840 842 843 845 847 848 849 851 852 853 854 855 856 857 857 858 859 859 860 860 861 861 861 861 862 863 863 863 863 863 863 863 863 863 864 864 864 865 865 865 865 863 860 859 860 859 858 858 857 857 856 855 854 853 852 851 850 850 849 848 847 846 846 846 845 845 844 843 843 842 842 842 842 842 842 842 842 842 842 842 842 842
831 832 835 836 839 841 842 844 845 847 848 849 851 852 853 854 854 855 856 857 857 858 858 859 859 859 860 860 861 861 862 862 862 861 861 861 862 862 862 862 862 862 862 863 861 858 857 858 857 856 855 855 854 853 852 851 850 850 848 847 846 845 844 844 843 842 841 841 840 839 839 838 838 838 837 837 837 837 836 836 837 837 837 837 837
828 830 831 833 836 838 839 841 843 844 846 847 848 849 850 851 852 853 854 854 855 855 856 857 857 858 858 858 859 859 860 860 860 860 859 859 859 859 859 859 859 859 859 859 859 856 855 855 855 853 853 852 851 850 849 848 847 847 846 845 843 842 841 840 839 838 837 835 835 834 834 833 833 832 832 832 831 831 831 831 831 831 831 831 832
825 827 829 830 832 834 836 838 840 841 843 844 845 847 848 848 849 850 851 851 852 853 853 854 855 855 855 856 856 857 857 858 858 858 857 857 857 857 857 857 857 857 857 857 856 855 853 852 852 851 850 849 848 847 846 845 844 843 842 842 840 839 837 836 835 834 833 832 831 830 828 827 827 826 827 827 826 826 825 825 825 825 826 826 827
822 823 825 827 829 831 833 835 836 838 839 841 842 844 845 846 847 848 848 849 850 850 851 851 852 853 853 853 854 854 855 855 855 855 855 855 855 855 855 854 854 854 854 854 853 853 851 849 849 848 848 847 846 844 844 842 841 840 838 837 837 835 834 833 831 830 829 828 827 824 821 820 820 821 822 821 820 820 820 820 820 820 821 822 823
818 820 822 824 826 827 829 831 833 834 836 838 839 840 842 843 844 845 846 846 847 848 848 849 849 850 850 851 851 852 852 852 853 853 852 852 852 852 852 852 852 852 852 852 851 851 850 848 846 846 845 844 843 842 841 840 839 837 835 834 832 831 829 828 827 826 824 823 821 817 814 814 814 815 816 815 814 815 815 815 815 816 816 817 817
815 817 818 820 822 823 825 827 829 831 833 834 836 837 839 840 841 842 843 844 844 845 846 846 847 847 847 848 848 849 849 850 850 850 850 850 850 850 850 850 850 849 849 849 849 848 847 846 844 843 843 842 841 839 839 839 837 835 833 831 830 828 826 824 823 822 821 819 817 813 811 811 810 810 810 809 809 810 810 810 811 811 812 812 812
811 813 815 816 818 820 822 824 826 828 830 831 833 834 835 837 838 839 839 841 841 842 843 844 844 845 845 845 845 846 846 846 847 847 847 848 847 847 847 847 847 847 847 846 846 845 845 844 842 841 840 839 838 837 837 837 835 834 832 830 828 826 824 823 821 820 819 817 814 812 810 809 807 807 805 804 804 805 805 805 806 806 807 806 806
807 809 811 813 815 817 819 821 823 825 826 828 829 830 832 833 834 835 836 837 838 839 840 841 841 842 842 842 842 843 843 843 844 845 845 845 845 845 845 845 845 845 844 844 843 843 842 841 840 839 838 837 836 835 834 834 832 831 830 828 825 823 822 821 819 819 817 814 812 810 809 807 804 803 801 799 799 799 799 800 800 800 801 801 800
804 806 808 810 812 814 815 817 819 821 823 824 825 826 828 829 831 832 833 834 835 836 837 838 838 839 839 839 839 840 840 840 841 841 842 842 843 843 843 843 843 843 842 842 841 840 840 838 837 837 836 834 833 831 831 830 829 828 827 825 822 820 819 817 816 816 815 811 808 807 807 806 803 800 799 797 794 793 792 792 792 794 795 795 792
801 803 805 807 809 810 812 814 816 817 819 820 821 822 824 826 828 829 830 831 832 833 834 835 835 835 836 836 836 837 837 837 838 838 838 839 839 839 840 841 841 841 840 839 838 838 837 836 835 834 833 831 830 829 828 827 827 825 824 822 820 818 816 813 811 812 812 810 805 802 802 804 802 798 796 795 793 790 787 785 785 787 789 788 785
798 800 802 804 805 807 809 810 812 813 814 815 816 818 820 822 824 826 827 828 829 830 831 831 832 832 833 833 833 833 834 834 834 834 834 835 835 835 836 836 837 838 837 837 836 835 835 834 833 832 830 829 828 828 827 825 824 823 821 820 818 816 814 811 807 806 808 808 804 799 795 798 800 795 791 791 791 788 786 784 783 783 783 782 779
794 796 798 800 802 804 806 807 808 809 810 811 812 814 816 818 820 823 824 825 826 827 828 828 828 829 829 830 830 830 830 830 831 831 831 831 831 831 832 832 833 833 834 834 834 833 833 832 831 830 829 827 827 826 825 823 822 821 820 819 817 814 812 810 805 803 804 805 804 798 791 791 794 792 787 786 786 784 782 782 782 781 779 777 775
791 793 795 797 799 800 802 803 805 806 807 808 808 810 812 814 816 819 821 822 823 824 824 825 825 826 826 826 827 827 827 827 828 828 828 828 828 828 828 828 828 828 829 829 830 830 831 830 829 828 827 826 825 824 823 822 820 819 817 815 814 812 809 807 804 800 801 802 801 797 790 786 788 788 783 781 781 779 777 777 778 776 775 774 772
787 789 791 793 795 797 798 800 801 802 803 804 805 806 808 810 812 815 817 819 820 820 821 822 822 822 823 823 823 823 824 824 825 825 826 826 826 826 825 825 824 824 824 825 825 825 826 826 826 825 825 824 823 822 821 821 819 817 815 813 812 809 806 803 801 798 798 798 797 795 788 782 783 783 779 777 777 775 773 772 773 771 769 769 768
783 785 787 789 791 793 795 796 798 798 799 800 801 803 804 806 809 811 813 815 816 817 818 818 819 819 819 820 820 819 820 821 821 822 823 824 824 824 824 823 822 822 821 821 822 821 821 822 821 821 822 822 821 820 819 818 816 814 813 811 810 807 803 799 797 795 794 794 794 791 784 779 779 778 774 773 773 771 769 769 768 766 764 763 763
780 782 784 785 787 789 790 792 793 794 795 797 798 799 801 803 806 808 810 811 812 813 814 814 815 816 816 816 816 816 816 817 817 818 820 821 821 821 821 821 820 820 819 819 819 819 819 819 819 819 819 819 818 818 817 816 814 812 811 810 808 805 802 797 793 791 790 790 790 788 782 777 777 775 770 769 769 767 765 765 764 762 760 758 758
776 777 779 781 783 784 786 787 789 790 791 793 794 795 797 800 802 804 806 808 808 809 810 811 811 812 812 812 813 813 813 813 813 815 816 817 818 819 819 818 818 817 816 816 816 816 816 816 815 815 815 815 815 814 813 812 811 810 809 807 805 804 801 797 793 788 786 786 788 786 781 776 775 773 768 766 765 763 761 760 759 757 755 754 753
771 773 775 777 778 780 781 783 784 786 787 788 790 791 794 796 798 800 802 804 805 805 806 807 807 808 808 808 809 809 809 809 810 812 813 814 815 816 816 816 815 814 814 814 814 813 812 812 812 812 812 812 811 810 810 809 808 808 806 803 802 801 798 796 793 788 784 783 784 784 780 775 773 771 767 762 760 758 757 755 754 753 751 750 749
767 769 771 773 774 775 777 779 780 782 783 785 786 787 789 792 794 796 798 800 801 801 802 803 803 804 804 804 804 804 805 805 806 808 810 811 812 813 814 813 812 812 812 812 812 811 811 810 810 810 809 808 808 807 806 805 804 804 803 801 800 799 796 794 792 789 783 780 781 782 779 774 771 769 767 761 755 751 752 752 751 750 749 747 745